timestamp,wind_dir_avg,wind_spd_avg,wind_spd_max_dir,wind_spd_gust,battery_voltage,lat,long
2021-07-20 00:04:01+00:00,194.0,5.18,195.0,5.93,13.13,47.59359,-54.27349
2021-07-20 00:14:01+00:00,218.0,5.59,223.0,6.25,12.65,47.59359,-54.27349
2021-07-20 00:24:01+00:00,217.0,4.68,218.0,5.93,12.65,47.59359,-54.27349
2021-07-20 00:34:01+00:00,222.0,6.05,215.0,7.28,12.65,47.59359,-54.27349
2021-07-20 00:44:01+00:00,212.0,4.78,213.0,5.76,12.65,47.59359,-54.27349
2021-07-20 00:54:01+00:00,205.0,6.36,204.0,6.83,12.65,47.59359,-54.27349
2021-07-20 01:04:01+00:00,214.0,5.05,213.0,5.74,12.65,47.59359,-54.27349
2021-07-20 01:14:01+00:00,211.0,5.4,207.0,6.03,12.65,47.59359,-54.27349
2021-07-20 01:24:01+00:00,216.0,5.77,216.0,6.54,12.65,47.59359,-54.27349
2021-07-20 01:34:01+00:00,221.0,7.03,221.0,7.71,12.65,47.59359,-54.27349
2021-07-20 01:44:01+00:00,229.0,5.93,232.0,6.84,12.65,47.59359,-54.27349
2021-07-20 01:54:01+00:00,225.0,5.23,215.0,6.26,12.65,47.59359,-54.27349
2021-07-20 02:04:01+00:00,227.0,3.92,223.0,4.61,12.65,47.59359,-54.27349
2021-07-20 02:14:00+00:00,223.0,4.01,218.0,4.88,12.65,47.59359,-54.27349
2021-07-20 02:24:00+00:00,215.0,2.44,217.0,2.57,12.65,47.59359,-54.27349
2021-07-20 02:34:00+00:00,211.0,2.78,211.0,2.95,12.65,47.59359,-54.27349
2021-07-20 02:44:00+00:00,188.0,2.63,187.0,2.79,12.65,47.59359,-54.27349
2021-07-20 02:54:00+00:00,185.0,1.74,190.0,1.93,12.65,47.59359,-54.27349
2021-07-20 03:04:00+00:00,221.0,1.33,219.0,1.51,12.65,47.59359,-54.27349
2021-07-20 03:14:01+00:00,228.0,1.75,225.0,1.96,12.65,47.59359,-54.27349
2021-07-20 03:24:01+00:00,181.0,1.62,185.0,1.79,12.65,47.59359,-54.27349
2021-07-20 03:34:01+00:00,165.0,1.92,168.0,2.03,12.65,47.59359,-54.27349
2021-07-20 03:44:01+00:00,171.0,2.19,176.0,2.34,12.65,47.59359,-54.27349
2021-07-20 03:54:01+00:00,179.0,2.34,181.0,2.61,12.65,47.59359,-54.27349
2021-07-20 04:04:01+00:00,200.0,2.21,201.0,2.45,12.65,47.59359,-54.27349
2021-07-20 04:14:01+00:00,206.0,2.06,209.0,2.26,12.57,47.59359,-54.27349
2021-07-20 04:24:01+00:00,178.0,2.31,183.0,3.01,12.57,47.59359,-54.27349
2021-07-20 04:34:01+00:00,211.0,3.02,213.0,3.41,12.57,47.59359,-54.27349
2021-07-20 04:44:01+00:00,210.0,3.94,212.0,4.22,12.57,47.59359,-54.27349
2021-07-20 04:54:01+00:00,205.0,4.63,205.0,4.99,12.57,47.59359,-54.27349
2021-07-20 05:04:01+00:00,216.0,5.35,220.0,5.82,12.57,47.59359,-54.27349
2021-07-20 05:14:01+00:00,218.0,5.55,220.0,6.1,12.57,47.59359,-54.27349
2021-07-20 05:24:01+00:00,215.0,5.0,216.0,5.62,12.57,47.59359,-54.27349
2021-07-20 05:34:01+00:00,210.0,4.0,216.0,4.58,12.57,47.59359,-54.27349
2021-07-20 05:44:01+00:00,203.0,3.99,203.0,4.35,12.57,47.59359,-54.27349
2021-07-20 05:54:01+00:00,208.0,3.65,210.0,4.01,12.57,47.59359,-54.27349
2021-07-20 06:04:01+00:00,211.0,4.11,213.0,4.68,12.57,47.59359,-54.27349
2021-07-20 06:14:01+00:00,206.0,5.23,206.0,5.6,12.57,47.59359,-54.27349
2021-07-20 06:24:01+00:00,207.0,4.56,108.0,12.72,12.57,47.59359,-54.27349
2021-07-20 06:34:01+00:00,207.0,4.23,208.0,4.62,12.57,47.59359,-54.27349
2021-07-20 06:44:01+00:00,210.0,3.34,217.0,3.86,12.57,47.59359,-54.27349
2021-07-20 06:54:01+00:00,229.0,3.22,233.0,3.96,12.57,47.59359,-54.27349
2021-07-20 07:04:01+00:00,239.0,1.43,248.0,3.72,12.57,47.59359,-54.27349
2021-07-20 07:14:00+00:00,187.0,3.15,176.0,4.3,12.49,47.59359,-54.27349
2021-07-20 07:24:00+00:00,184.0,2.86,112.0,6.53,12.49,47.59359,-54.27349
2021-07-20 07:34:00+00:00,164.0,0.44,79.0,5.42,12.49,47.59359,-54.27349
2021-07-20 07:44:00+00:00,196.0,1.9,209.0,2.66,12.49,47.59359,-54.27349
2021-07-20 07:54:00+00:00,254.0,2.15,260.0,3.6,12.49,47.59359,-54.27349
2021-07-20 08:04:00+00:00,282.0,1.26,274.0,1.41,12.49,47.59359,-54.27349
2021-07-20 08:14:01+00:00,272.0,1.33,267.0,1.46,12.41,47.59359,-54.27349
2021-07-20 08:24:01+00:00,344.0,1.2,337.0,1.36,12.41,47.59359,-54.27349
2021-07-20 08:34:01+00:00,255.0,2.39,252.0,2.73,12.41,47.59359,-54.27349
2021-07-20 08:44:01+00:00,245.0,0.72,241.0,1.19,12.41,47.59359,-54.27349
2021-07-20 08:54:01+00:00,215.0,1.59,228.0,2.52,12.41,47.59359,-54.27349
2021-07-20 09:04:01+00:00,237.0,2.95,241.0,4.3,12.41,47.59359,-54.27349
2021-07-20 09:14:01+00:00,225.0,4.12,225.0,5.0,12.49,47.59359,-54.27349
2021-07-20 09:24:01+00:00,208.0,7.51,209.0,8.24,12.49,47.59359,-54.27349
2021-07-20 09:34:01+00:00,213.0,5.65,213.0,6.16,12.49,47.59359,-54.27349
2021-07-20 09:44:01+00:00,182.0,3.52,187.0,4.06,12.49,47.59359,-54.27349
2021-07-20 09:54:01+00:00,165.0,2.51,168.0,2.76,12.49,47.59359,-54.27349
2021-07-20 10:04:01+00:00,211.0,1.69,212.0,1.86,12.49,47.59359,-54.27349
2021-07-20 10:14:01+00:00,186.0,1.62,187.0,1.74,13.76,47.59359,-54.27349
2021-07-20 10:24:01+00:00,196.0,1.62,201.0,1.96,13.76,47.59359,-54.27349
2021-07-20 10:34:01+00:00,182.0,1.63,185.0,2.05,13.76,47.59359,-54.27349
2021-07-20 10:44:01+00:00,221.0,3.32,211.0,4.06,13.76,47.59359,-54.27349
2021-07-20 10:54:01+00:00,218.0,5.38,246.0,10.85,13.76,47.59359,-54.27349
2021-07-20 11:04:01+00:00,211.0,4.74,216.0,5.27,13.76,47.59359,-54.27349
2021-07-20 11:14:01+00:00,224.0,5.38,224.0,6.64,12.89,47.59359,-54.27349
2021-07-20 11:24:01+00:00,229.0,4.4,227.0,5.87,12.89,47.59359,-54.27349
2021-07-20 11:34:01+00:00,226.0,4.33,227.0,5.24,12.89,47.59359,-54.27349
2021-07-20 11:44:01+00:00,226.0,3.93,228.0,4.57,12.89,47.59359,-54.27349
2021-07-20 11:54:01+00:00,207.0,3.32,210.0,3.66,12.89,47.59359,-54.27349
2021-07-20 12:04:01+00:00,202.0,3.39,199.0,3.98,12.89,47.59359,-54.27349
2021-07-20 12:14:01+00:00,200.0,3.88,202.0,4.32,13.53,47.59359,-54.27349
2021-07-20 12:24:01+00:00,218.0,6.25,225.0,7.23,13.53,47.59359,-54.27349
2021-07-20 12:34:01+00:00,218.0,6.97,219.0,7.96,13.53,47.59359,-54.27349
2021-07-20 12:44:01+00:00,228.0,5.39,234.0,6.24,13.53,47.59359,-54.27349
2021-07-20 12:54:01+00:00,228.0,5.82,221.0,6.98,13.53,47.59359,-54.27349
2021-07-20 13:04:01+00:00,229.0,6.92,232.0,8.0,13.53,47.59359,-54.27349
2021-07-20 13:14:01+00:00,229.0,7.09,230.0,8.31,13.76,47.59359,-54.27349
2021-07-20 13:24:01+00:00,226.0,8.1,230.0,9.01,13.76,47.59359,-54.27349
2021-07-20 13:34:01+00:00,224.0,7.13,224.0,8.07,13.76,47.59359,-54.27349
2021-07-20 13:44:01+00:00,227.0,8.32,224.0,9.66,13.76,47.59359,-54.27349
2021-07-20 13:54:01+00:00,219.0,7.28,217.0,7.93,13.76,47.59359,-54.27349
2021-07-20 14:04:01+00:00,228.0,6.83,232.0,7.95,13.76,47.59359,-54.27349
2021-07-20 14:14:01+00:00,228.0,6.91,227.0,7.83,13.76,47.59359,-54.27349
2021-07-20 14:24:01+00:00,223.0,7.07,223.0,7.91,13.76,47.59359,-54.27349
2021-07-20 14:34:01+00:00,222.0,7.82,224.0,9.16,13.76,47.59359,-54.27349
2021-07-20 14:44:01+00:00,213.0,6.06,217.0,6.94,13.76,47.59359,-54.27349
2021-07-20 14:54:01+00:00,212.0,6.38,211.0,7.17,13.76,47.59359,-54.27349
2021-07-20 15:04:01+00:00,212.0,6.93,219.0,8.24,13.76,47.59359,-54.27349
2021-07-20 15:14:01+00:00,219.0,5.19,218.0,5.82,13.68,47.59359,-54.27349
2021-07-20 15:24:01+00:00,248.0,7.82,241.0,8.31,13.68,47.59359,-54.27349
2021-07-20 15:34:01+00:00,194.0,5.77,196.0,6.22,13.68,47.59359,-54.27349
2021-07-20 15:44:01+00:00,194.0,7.57,196.0,8.26,13.68,47.59359,-54.27349
2021-07-20 15:54:01+00:00,195.0,6.8,197.0,7.2,13.68,47.59359,-54.27349
2021-07-20 16:04:01+00:00,201.0,6.7,201.0,7.06,13.68,47.59359,-54.27349
2021-07-20 16:14:01+00:00,196.0,6.75,197.0,7.27,13.84,47.59359,-54.27349
2021-07-20 16:24:01+00:00,202.0,5.9,202.0,6.55,13.84,47.59359,-54.27349
2021-07-20 16:34:01+00:00,239.0,5.64,240.0,6.69,13.84,47.59359,-54.27349
2021-07-20 16:44:01+00:00,208.0,6.26,213.0,7.24,13.84,47.59359,-54.27349
2021-07-20 16:54:01+00:00,198.0,7.07,201.0,7.62,13.84,47.59359,-54.27349
2021-07-20 17:04:01+00:00,202.0,7.66,208.0,8.44,13.84,47.59359,-54.27349
2021-07-20 17:14:01+00:00,205.0,7.84,208.0,8.77,13.84,47.59359,-54.27349
2021-07-20 17:24:01+00:00,207.0,7.15,208.0,7.96,13.84,47.59359,-54.27349
2021-07-20 17:34:01+00:00,205.0,7.22,205.0,7.87,13.84,47.59359,-54.27349
2021-07-20 17:44:01+00:00,204.0,6.64,200.0,7.28,13.84,47.59359,-54.27349
2021-07-20 17:54:01+00:00,204.0,5.48,209.0,6.31,13.84,47.59359,-54.27349
2021-07-20 18:04:01+00:00,206.0,6.56,208.0,7.06,13.84,47.59359,-54.27349
2021-07-20 18:14:01+00:00,205.0,6.28,212.0,7.31,13.76,47.59359,-54.27349
2021-07-20 18:24:01+00:00,200.0,4.57,203.0,5.56,13.76,47.59359,-54.27349
2021-07-20 18:34:01+00:00,203.0,5.33,200.0,6.24,13.76,47.59359,-54.27349
2021-07-20 18:44:01+00:00,213.0,6.82,215.0,7.56,13.76,47.59359,-54.27349
2021-07-20 18:54:01+00:00,205.0,6.59,201.0,7.35,13.76,47.59359,-54.27349
2021-07-20 19:04:01+00:00,215.0,6.87,216.0,7.65,13.76,47.59359,-54.27349
2021-07-20 19:14:01+00:00,220.0,6.55,230.0,8.26,13.6,47.59359,-54.27349
2021-07-20 19:24:01+00:00,228.0,8.68,227.0,10.13,13.6,47.59359,-54.27349
2021-07-20 19:34:01+00:00,180.0,3.57,184.0,4.54,13.6,47.59359,-54.27349
2021-07-20 19:44:01+00:00,220.0,7.15,219.0,8.16,13.6,47.59359,-54.27349
2021-07-20 19:54:01+00:00,205.0,5.31,206.0,5.98,13.6,47.59359,-54.27349
2021-07-20 20:04:01+00:00,212.0,4.76,216.0,5.56,13.6,47.59359,-54.27349
2021-07-20 20:14:01+00:00,209.0,6.8,212.0,7.9,13.76,47.59359,-54.27349
2021-07-20 20:24:01+00:00,206.0,6.78,212.0,7.7,13.76,47.59359,-54.27349
2021-07-20 20:34:01+00:00,210.0,7.55,212.0,8.51,13.76,47.59359,-54.27349
2021-07-20 20:44:01+00:00,202.0,8.18,208.0,9.19,13.76,47.59359,-54.27349
2021-07-20 20:54:01+00:00,198.0,7.76,197.0,8.76,13.76,47.59359,-54.27349
2021-07-20 21:04:01+00:00,205.0,8.1,206.0,8.79,13.76,47.59359,-54.27349
2021-07-20 21:14:01+00:00,208.0,8.16,212.0,9.03,13.6,47.59359,-54.27349
2021-07-20 21:24:01+00:00,205.0,7.81,207.0,8.68,13.6,47.59359,-54.27349
2021-07-20 21:34:01+00:00,214.0,8.82,216.0,10.05,13.6,47.59359,-54.27349
2021-07-20 21:44:01+00:00,218.0,8.77,218.0,10.31,13.6,47.59359,-54.27349
2021-07-20 21:54:01+00:00,218.0,9.4,219.0,10.72,13.6,47.59359,-54.27349
2021-07-20 22:04:01+00:00,215.0,7.51,212.0,8.48,13.6,47.59359,-54.27349
2021-07-20 22:14:01+00:00,210.0,7.15,198.0,8.18,13.13,47.59359,-54.27349
2021-07-20 22:24:01+00:00,211.0,7.5,208.0,8.56,13.13,47.59359,-54.27349
2021-07-20 22:34:01+00:00,210.0,8.13,209.0,9.64,13.13,47.59359,-54.27349
2021-07-20 22:44:01+00:00,205.0,8.71,205.0,9.97,13.13,47.59359,-54.27349
2021-07-20 22:54:01+00:00,212.0,9.09,209.0,10.33,13.13,47.59359,-54.27349
2021-07-20 23:04:01+00:00,212.0,9.02,214.0,10.33,13.13,47.59359,-54.27349
2021-07-20 23:14:01+00:00,213.0,8.97,215.0,9.79,12.73,47.59359,-54.27349
2021-07-20 23:24:01+00:00,215.0,7.69,214.0,8.61,12.73,47.59359,-54.27349
2021-07-20 23:34:01+00:00,208.0,8.47,205.0,9.4,12.73,47.59359,-54.27349
2021-07-20 23:44:01+00:00,208.0,8.19,210.0,9.23,12.73,47.59359,-54.27349
2021-07-20 23:54:01+00:00,207.0,8.85,206.0,10.45,12.73,47.59359,-54.27349
